Temp
91 91 92 91 92 92 92 91 90 88 89 94 91 96 93 96 96 97 98 97 96 94 94 92 91 91 94 93 91 92 93 92 93 95 92 93 94 93 94 94 93 93
91 91 91 93 91 92 92 92 92 93 94 88 94 89 95 98 99 96 97 97 96 96 94 93 92 91 91 93 91 92 92 92 91 96 93 92 92 94 94 94 94 94
93 90 93 92 92 92 92 92 87 81 81 78 83 83 84 88 90 96 95 96 96 98 95 94 92 91 92 92 91 92 93 90 91 94 92 92 93 92 93 96 95 95
92 93 94 94 89 83 81 83 86 86 87 89 87 91 91 92 88 86 91 94 94 95 96 95 94 94 91 93 91 92 92 91 92 92 91 92 93 94 94 94 95 96
95 94 91 82 80 82 84 86 89 90 90 90 93 92 91 89 89 93 89 92 93 95 95 94 94 94 93 92 91 90 92 93 92 90 90 90 91 92 94 95 93 94
94 91 83 76 77 80 83 90 91 92 89 90 91 93 92 91 91 91 91 91 96 94 97 97 96 95 95 93 91 91 93 95 94 90 90 89 91 94 95 94 93 92
90 87 81 79 79 81 84 91 93 93 91 90 91 92 92 92 92 91 90 89 93 92 95 93 92 92 94 92 90 89 91 91 92 91 89 90 89 90 94 94 90 90
88 86 82 80 81 83 85 91 93 94 93 92 91 88 91 92 90 92 91 91 92 94 92 94 92 90 93 93 91 90 91 94 93 90 88 88 88 87 88 91 90 88
88 84 81 80 81 82 83 86 90 90 92 92 90 90 91 93 93 93 90 90 91 88 90 93 92 92 92 91 91 90 90 93 93 92 89 88 87 87 87 88 90 88
87 85 83 81 81 83 83 85 87 88 89 89 89 90 91 92 92 90 90 88 89 89 90 91 91 91 91 90 90 90 90 90 91 91 91 89 88 88 89 87 86 86
86 85 84 82 83 84 85 85 85 87 87 87 87 89 90 89 90 90 90 89 85 90 90 90 90 90 89 90 91 90 91 92 90 89 90 88 88 87 87 87 85 85
85 85 85 84 83 83 84 85 84 85 85 85 86 86 87 88 88 89 88 89 88 91 91 89 89 89 89 90 90 91 91 90 90 90 89 88 88 88 85 86 83 80
84 84 85 85 84 84 85 84 84 84 84 84 85 85 84 85 86 87 88 90 87 87 89 89 88 88 88 89 89 89 89 89 89 88 88 84 82 81 83 81 80 81
83 81 85 85 85 84 85 84 84 83 83 83 83 83 83 83 84 85 86 87 85 84 87 87 87 84 86 88 88 88 88 88 88 85 81 78 77 76 77 79 79 80
83 82 82 82 84 85 84 84 84 83 83 82 82 83 84 84 84 85 85 84 85 83 84 86 85 85 83 84 86 86 87 86 84 83 82 80 80 80 82 84 83 84
82 82 82 80 79 81 83 84 84 83 83 82 82 83 83 84 84 85 84 84 84 83 83 83 81 80 81 78 79 86 85 84 84 84 82 82 81 81 82 83 83 82
80 81 82 80 80 81 81 82 83 83 82 82 82 82 83 83 83 83 83 83 83 81 79 80 81 82 79 74 74 78 85 85 84 83 83 83 82 80 80 81 82 81
80 79 80 81 81 81 82 82 83 82 82 82 81 82 82 83 83 82 82 82 83 82 82 83 82 80 70 70 72 74 81 85 85 85 84 83 82 81 81 81 81 80
79 79 79 80 81 81 82 83 82 82 82 82 81 82 83 82 81 81 81 82 83 82 82 83 84 75 68 69 70 71 74 83 85 84 82 82 82 82 81 80 80 80
79 79 79 79 80 81 81 81 80 79 80 83 82 82 81 81 81 80 81 81 82 82 82 84 84 73 68 68 69 69 71 77 84 82 81 81 81 81 82 80 80 80
78 78 79 80 80 80 80 80 79 78 78 81 82 82 81 80 79 79 80 80 81 81 83 83 84 69 66 67 67 67 68 77 84 83 82 80 81 81 81 81 80 80
78 79 79 79 80 79 77 77 78 78 77 79 80 80 81 80 80 80 79 80 80 80 81 81 83 65 66 66 65 66 68 80 82 82 80 79 79 80 80 80 79 79
79 79 79 79 79 79 79 77 76 77 77 75 77 80 79 79 80 80 80 80 80 80 80 80 81 67 64 63 63 63 70 79 79 79 79 79 78 78 79 79 79 79
79 80 79 79 79 78 78 78 77 76 75 75 78 80 79 79 80 80 81 81 80 80 80 80 81 70 62 61 62 62 74 78 77 76 76 76 77 78 78 78 77 76
79 79 79 79 78 77 76 75 77 76 76 79 80 80 80 80 81 80 79 78 79 80 79 80 80 71 60 61 61 62 73 79 76 75 72 74 73 72 73 74 75 75
76 78 79 79 79 79 78 78 79 77 77 78 79 81 80 81 80 80 78 76 78 78 78 80 78 73 65 59 60 61 68 77 76 72 71 70 69 69 69 70 70 69
MSLP
1009.20 1009.24 1009.32 1009.40 1009.48 1009.56 1009.84 1010.40 1010.64 1010.92 1010.80 1010.44 1010.92 1010.36 1010.64 1009.92 1009.76 1010.08 1010.20 1010.28 1010.64 1011.04 1011.24 1011.52 1011.72 1011.96 1011.92 1011.96 1012.12 1012.20 1012.28 1012.36 1012.40 1012.32 1012.64 1012.76 1012.92 1013.08 1013.16 1013.12 1013.12 1013.08
1008.72 1008.72 1008.72 1008.80 1009.00 1009.00 1009.24 1009.64 1010.00 1010.08 1009.88 1010.36 1010.16 1010.68 1009.92 1009.40 1009.56 1009.88 1010.08 1010.24 1010.36 1010.64 1010.80 1011.12 1011.44 1011.64 1011.68 1011.64 1011.88 1012.12 1012.12 1012.16 1012.44 1011.92 1012.32 1012.64 1012.76 1012.64 1012.76 1012.76 1012.84 1012.72
1008.24 1008.40 1008.48 1008.76 1008.92 1009.00 1009.20 1009.44 1010.08 1010.68 1010.76 1011.36 1011.28 1011.12 1011.24 1010.60 1010.44 1009.76 1009.88 1010.12 1010.20 1010.24 1010.52 1010.76 1011.04 1011.28 1011.44 1011.44 1011.56 1011.84 1011.88 1012.08 1012.20 1011.80 1012.00 1012.28 1012.24 1012.48 1012.36 1012.24 1012.32 1012.44
1007.84 1007.84 1008.04 1008.32 1008.72 1009.60 1009.92 1010.24 1010.16 1010.04 1010.12 1010.48 1010.88 1010.48 1010.28 1010.16 1010.48 1010.92 1010.32 1009.92 1010.20 1010.20 1010.12 1010.32 1010.60 1010.76 1011.24 1011.16 1011.36 1011.64 1011.60 1011.72 1011.68 1011.64 1011.88 1011.88 1011.92 1011.96 1012.04 1011.96 1011.96 1011.96
1007.40 1007.48 1007.96 1009.24 1009.60 1009.48 1009.28 1009.56 1009.68 1009.60 1009.64 1009.72 1009.76 1009.84 1010.00 1010.08 1010.24 1010.12 1010.40 1009.96 1009.88 1010.08 1010.00 1010.12 1010.24 1010.36 1010.60 1010.80 1011.04 1011.48 1011.40 1011.48 1011.44 1011.64 1011.96 1012.12 1011.88 1011.92 1011.80 1011.68 1011.92 1012.08
1006.96 1007.36 1007.80 1008.04 1008.32 1008.44 1008.76 1008.72 1008.80 1008.88 1009.12 1009.12 1009.12 1009.08 1009.28 1009.52 1009.72 1009.88 1010.00 1010.00 1009.40 1009.68 1009.68 1009.64 1009.92 1010.08 1010.16 1010.52 1010.80 1011.04 1011.04 1011.12 1011.04 1011.40 1011.84 1012.08 1011.96 1011.64 1011.56 1011.60 1011.80 1012.04
1007.12 1007.08 1007.16 1007.44 1007.84 1008.12 1008.20 1007.92 1007.84 1008.00 1008.28 1008.32 1008.44 1008.64 1008.76 1008.92 1009.08 1009.28 1009.64 1009.88 1009.52 1009.56 1009.64 1009.52 1009.68 1009.84 1009.80 1010.08 1010.52 1010.84 1010.80 1010.84 1010.84 1011.00 1011.56 1011.68 1011.76 1011.80 1011.48 1011.44 1011.76 1012.00
1006.68 1006.56 1006.88 1007.20 1007.76 1007.92 1007.76 1007.44 1007.28 1007.28 1007.48 1007.76 1008.12 1008.40 1008.48 1008.52 1008.72 1008.80 1009.08 1009.36 1009.48 1009.28 1009.40 1009.24 1009.32 1009.64 1009.64 1009.80 1010.20 1010.52 1010.64 1010.48 1010.72 1010.96 1011.28 1011.48 1011.52 1011.92 1011.88 1011.64 1011.64 1012.04
1006.12 1006.52 1006.88 1007.32 1007.48 1007.28 1007.12 1007.08 1006.96 1007.00 1007.00 1007.40 1007.72 1007.92 1007.88 1007.92 1008.08 1008.36 1008.76 1009.00 1009.12 1009.40 1009.24 1008.92 1009.00 1009.28 1009.36 1009.52 1009.80 1010.08 1010.32 1010.28 1010.20 1010.52 1010.96 1011.36 1011.60 1011.76 1011.84 1011.80 1011.92 1012.04
1005.96 1006.20 1006.64 1006.92 1007.08 1006.88 1007.00 1006.84 1006.68 1006.64 1006.60 1006.76 1007.04 1007.20 1007.40 1007.40 1007.76 1008.28 1008.32 1008.64 1008.88 1008.92 1008.76 1008.68 1008.80 1008.96 1009.08 1009.20 1009.52 1009.72 1009.92 1010.16 1010.12 1010.20 1010.44 1010.80 1011.12 1011.36 1011.44 1011.72 1011.92 1012.16
1005.84 1005.96 1006.16 1006.36 1006.48 1006.36 1006.32 1006.24 1006.28 1006.40 1006.36 1006.60 1006.80 1006.96 1007.00 1007.20 1007.52 1007.68 1007.84 1008.16 1008.84 1008.44 1008.32 1008.40 1008.52 1008.68 1008.92 1008.96 1009.08 1009.24 1009.48 1009.64 1009.84 1010.04 1010.24 1010.48 1010.68 1010.96 1011.12 1011.36 1011.80 1012.08
1005.76 1005.64 1005.68 1005.84 1005.96 1005.96 1005.92 1005.88 1005.96 1006.12 1006.20 1006.28 1006.44 1006.80 1006.88 1006.92 1007.28 1007.48 1007.88 1007.84 1007.96 1007.80 1007.76 1007.96 1008.12 1008.32 1008.48 1008.64 1008.80 1008.88 1009.04 1009.24 1009.44 1009.60 1009.88 1010.16 1010.44 1010.68 1011.12 1011.28 1012.12 1012.80
1005.68 1005.60 1005.28 1005.28 1005.48 1005.44 1005.40 1005.44 1005.56 1005.64 1005.84 1006.04 1006.00 1006.28 1006.60 1006.84 1006.88 1007.16 1007.32 1007.24 1007.56 1007.64 1007.56 1007.60 1007.88 1008.12 1008.24 1008.36 1008.48 1008.64 1008.80 1008.96 1009.20 1009.44 1009.72 1010.28 1010.76 1011.04 1011.12 1011.80 1012.44 1012.56
1005.68 1005.68 1005.24 1005.20 1005.04 1005.00 1005.08 1005.12 1005.20 1005.40 1005.60 1005.76 1006.00 1006.32 1006.56 1006.72 1006.84 1006.88 1006.92 1006.92 1007.28 1007.60 1007.36 1007.52 1007.72 1008.48 1008.44 1008.20 1008.24 1008.32 1008.56 1008.84 1009.12 1009.68 1010.48 1010.76 1011.00 1011.16 1011.20 1011.32 1011.52 1011.60
1005.36 1005.40 1005.40 1005.48 1005.20 1004.92 1004.88 1004.88 1004.92 1005.12 1005.36 1005.64 1005.84 1006.12 1006.20 1006.32 1006.48 1006.56 1006.76 1006.92 1006.92 1007.20 1007.40 1007.44 1007.84 1008.24 1008.56 1008.72 1008.48 1008.36 1008.36 1008.84 1009.32 1009.68 1010.04 1010.56 1010.76 1010.88 1010.92 1010.96 1011.08 1011.16
1005.36 1005.28 1005.32 1005.56 1005.76 1005.28 1004.84 1004.68 1004.76 1004.96 1005.16 1005.48 1005.64 1005.76 1005.84 1005.92 1006.08 1006.24 1006.44 1006.56 1006.80 1007.12 1007.24 1007.48 1007.88 1008.32 1008.44 1008.76 1008.76 1008.28 1008.44 1008.72 1009.04 1009.44 1009.84 1010.16 1010.52 1010.76 1010.80 1010.68 1010.80 1011.04
1005.44 1005.24 1005.16 1005.32 1005.24 1005.00 1004.80 1004.80 1004.76 1004.76 1004.96 1005.16 1005.32 1005.44 1005.52 1005.56 1005.68 1005.96 1006.12 1006.24 1006.48 1006.92 1007.56 1007.48 1007.48 1007.40 1007.56 1007.88 1008.12 1008.20 1008.12 1008.44 1008.84 1009.16 1009.40 1009.72 1010.04 1010.40 1010.56 1010.64 1010.68 1010.84
1005.48 1005.32 1005.12 1004.92 1004.76 1004.68 1004.56 1004.44 1004.48 1004.60 1004.80 1004.92 1005.08 1005.16 1005.16 1005.16 1005.44 1005.68 1005.80 1005.96 1006.20 1006.48 1006.84 1007.00 1007.04 1007.04 1007.44 1007.80 1007.76 1007.80 1007.92 1008.12 1008.36 1008.72 1009.08 1009.40 1009.68 1009.96 1010.12 1010.28 1010.56 1010.84
1005.32 1005.28 1005.12 1004.84 1004.60 1004.44 1004.32 1004.28 1004.40 1004.44 1004.48 1004.60 1004.72 1004.64 1004.72 1005.00 1005.28 1005.48 1005.68 1005.72 1005.96 1006.28 1006.56 1006.56 1006.60 1006.68 1007.16 1007.52 1007.60 1007.68 1007.88 1008.00 1008.16 1008.40 1008.80 1009.08 1009.32 1009.60 1009.84 1010.08 1010.32 1010.68
1005.04 1005.00 1005.00 1004.76 1004.52 1004.44 1004.36 1004.36 1004.56 1004.88 1004.72 1004.40 1004.44 1004.60 1004.84 1004.92 1005.08 1005.32 1005.48 1005.64 1005.76 1006.08 1006.20 1006.16 1006.20 1006.56 1007.00 1007.24 1007.40 1007.52 1007.76 1007.96 1008.04 1008.32 1008.64 1008.88 1009.08 1009.32 1009.48 1009.80 1010.04 1010.32
1004.84 1004.72 1004.60 1004.44 1004.36 1004.36 1004.32 1004.32 1004.48 1004.80 1004.92 1004.56 1004.44 1004.56 1004.80 1004.92 1005.04 1005.28 1005.36 1005.48 1005.64 1005.84 1005.88 1005.92 1005.88 1006.40 1006.84 1007.08 1007.28 1007.44 1007.80 1007.92 1007.88 1008.12 1008.48 1008.80 1008.96 1009.16 1009.32 1009.52 1009.84 1010.08
1004.52 1004.44 1004.32 1004.20 1004.12 1004.12 1004.28 1004.36 1004.28 1004.36 1004.68 1004.60 1004.52 1004.48 1004.44 1004.56 1004.76 1004.92 1005.20 1005.36 1005.44 1005.56 1005.72 1005.80 1005.72 1006.16 1006.60 1006.92 1007.12 1007.36 1007.84 1007.88 1007.84 1008.12 1008.48 1008.72 1009.08 1009.20 1009.36 1009.60 1009.80 1010.04
1004.08 1004.08 1004.04 1004.00 1003.84 1003.84 1003.84 1003.96 1004.20 1004.24 1004.28 1004.64 1004.72 1004.40 1004.56 1004.64 1004.68 1004.72 1004.76 1004.92 1005.12 1005.32 1005.56 1005.64 1005.68 1005.92 1006.28 1006.72 1007.04 1007.36 1007.80 1007.80 1007.96 1008.20 1008.52 1008.80 1009.08 1009.28 1009.52 1009.64 1009.80 1010.04
1003.68 1003.56 1003.64 1003.68 1003.68 1003.76 1003.76 1003.72 1003.76 1003.96 1004.20 1004.36 1004.36 1004.24 1004.36 1004.32 1004.32 1004.32 1004.32 1004.40 1004.72 1005.00 1005.12 1005.44 1005.48 1005.76 1006.20 1006.68 1006.96 1007.32 1007.32 1007.60 1008.04 1008.40 1008.80 1009.00 1009.24 1009.44 1009.68 1009.92 1010.16 1010.40
1003.32 1003.20 1003.16 1003.20 1003.40 1003.44 1003.44 1003.56 1003.40 1003.56 1003.76 1003.56 1003.52 1003.64 1003.80 1003.76 1003.84 1003.96 1004.12 1004.36 1004.52 1004.68 1004.84 1005.12 1005.20 1005.72 1006.16 1006.52 1006.84 1007.08 1007.16 1007.32 1007.96 1008.40 1009.00 1009.20 1009.40 1009.84 1010.00 1010.16 1010.44 1010.68
1003.36 1003.00 1002.76 1002.80 1002.88 1002.92 1002.96 1002.96 1002.84 1003.08 1003.12 1003.00 1003.16 1003.20 1003.40 1003.40 1003.52 1003.68 1004.12 1004.44 1004.36 1004.52 1004.88 1004.92 1005.16 1005.60 1006.04 1006.36 1006.68 1006.96 1007.04 1007.24 1007.72 1008.40 1009.00 1009.36 1009.76 1010.12 1010.40 1010.68 1010.96 1011.32
Wind_Speed
15 14 15 14 14 14 13 11 10 13 13 10 12 9 11 11 11 11 11 11 12 12 11 11 9 9 9 9 8 8 8 8 8 8 9 9 9 11 10 11 10 9
17 16 14 14 12 12 13 11 14 11 10 9 9 7 11 9 10 10 11 11 11 12 11 11 10 10 10 9 10 10 9 8 9 8 8 10 9 10 11 11 11 9
17 17 17 17 13 15 14 10 4 3 5 6 9 4 8 9 9 8 10 11 11 12 12 11 11 10 10 10 9 10 10 9 10 10 9 10 9 10 9 10 10 11
17 17 16 16 13 1 5 4 8 7 8 7 8 7 8 7 6 10 11 11 11 11 11 12 12 11 11 12 10 9 10 10 10 9 9 9 9 10 10 9 10 10
16 16 9 3 5 8 10 9 9 10 11 11 11 10 8 9 10 10 10 10 11 12 11 12 12 11 11 10 10 9 10 9 10 9 9 9 9 9 9 9 10 11
13 9 9 12 14 13 11 14 13 12 11 12 12 11 12 11 11 11 11 13 12 13 13 13 13 12 12 11 10 10 10 10 10 10 10 10 9 9 8 9 10 11
13 9 13 10 13 11 14 16 14 14 14 13 12 13 11 12 12 12 10 13 13 11 14 13 12 12 12 11 10 11 10 10 10 10 11 10 9 10 10 10 10 10
15 11 10 9 8 11 14 15 15 14 13 13 14 13 12 12 12 11 11 12 13 14 13 14 12 12 12 11 11 11 12 10 11 11 10 10 9 9 9 9 8 8
14 10 9 10 12 13 14 15 15 14 13 13 14 13 13 13 13 12 12 13 12 11 13 14 13 13 12 12 11 12 12 12 11 12 11 10 10 10 9 9 10 8
13 12 13 13 14 13 13 15 15 14 14 14 14 13 14 13 12 14 13 12 13 15 15 13 13 13 12 12 12 12 12 12 12 11 10 11 10 10 10 9 10 9
13 14 15 15 15 14 16 16 15 14 12 13 12 13 13 12 12 11 12 11 12 15 13 13 13 13 12 12 11 12 12 12 12 11 10 9 9 9 8 8 7 7
13 14 16 16 15 14 15 15 13 13 13 12 13 13 13 12 12 10 10 15 14 14 13 13 11 12 13 12 12 12 12 12 11 11 10 9 8 8 7 8 6 4
12 14 14 15 14 14 13 13 13 14 13 13 12 13 13 12 12 12 13 12 10 11 13 12 12 11 11 12 12 12 12 13 11 11 8 2 2 3 2 3 8 8
11 12 12 13 12 13 13 13 12 11 11 10 10 11 12 12 12 12 11 11 9 13 12 11 9 9 12 12 12 12 11 11 10 5 5 6 6 6 6 5 5 6
10 9 7 10 12 14 14 15 13 11 11 11 10 11 11 12 13 12 13 12 12 8 9 7 8 8 6 11 11 12 10 7 7 8 7 7 8 8 7 8 8 7
11 9 9 9 11 13 13 13 14 12 12 13 13 13 13 12 13 13 13 13 12 12 7 8 7 8 9 10 12 8 8 8 8 7 8 8 9 8 7 7 8 8
11 10 9 11 12 11 10 11 12 12 12 14 14 14 14 13 12 13 12 11 11 9 10 7 7 6 11 11 14 13 10 9 9 9 9 8 8 8 8 9 9 9
10 11 11 11 12 13 12 13 12 12 12 13 13 14 14 13 13 12 10 9 9 9 10 10 8 9 11 14 15 14 12 9 10 9 8 8 8 8 9 9 10 9
10 10 11 11 12 12 11 11 12 13 13 13 14 13 13 13 11 10 10 9 10 11 12 11 10 11 15 15 15 15 14 11 9 9 9 9 9 10 10 10 9 9
9 9 10 11 10 10 10 10 10 12 13 11 10 10 11 11 10 9 9 10 10 11 11 10 10 14 17 17 15 16 15 13 10 10 9 10 11 11 10 11 11 10
9 9 10 10 9 9 9 8 8 7 10 9 9 9 10 10 9 9 10 9 10 11 10 10 8 16 17 17 15 15 14 12 9 9 10 10 10 11 10 10 10 10
9 9 9 10 10 9 10 11 9 9 10 9 7 7 6 6 7 8 9 10 11 10 11 11 8 17 17 17 16 15 13 11 10 10 10 10 10 10 10 9 10 10
8 9 9 10 9 10 10 10 10 10 9 7 10 9 8 8 9 9 10 11 12 11 12 11 8 14 17 16 15 15 13 11 9 9 9 10 10 9 9 10 10 10
9 9 9 8 8 9 9 9 8 7 6 9 10 10 10 10 9 11 11 12 13 13 12 11 8 12 16 15 15 16 15 10 8 9 10 10 10 11 10 9 10 12
9 9 9 9 8 8 8 10 9 8 8 11 8 9 9 9 11 11 10 7 8 11 12 11 8 10 16 17 17 18 15 11 10 10 12 12 11 10 9 8 9 9
9 10 9 8 8 7 8 8 8 8 11 11 10 10 10 9 10 10 9 8 9 9 10 11 9 10 14 18 18 18 15 9 10 12 11 9 9 9 10 8 7 6
Wind_Direction
235 232 235 233 233 233 229 224 229 230 233 225 231 229 229 228 219 222 221 217 210 211 211 213 210 213 219 217 217 224 234 229 233 226 223 230 228 232 235 235 236 244
237 234 234 235 234 233 233 227 235 248 244 238 242 257 257 228 217 222 224 222 216 213 212 204 205 211 219 218 205 218 223 220 224 230 227 223 234 239 237 237 238 240
238 236 235 234 233 234 237 237 288 350 337 6 311 264 274 314 296 239 223 229 226 219 209 209 204 205 214 221 209 215 220 219 224 224 228 229 229 232 240 239 234 236
239 238 238 239 236 339 31 270 206 208 232 209 216 244 256 246 240 280 261 222 231 229 221 207 211 203 208 219 208 218 226 220 222 229 230 232 230 234 234 236 238 236
240 238 232 39 71 154 181 181 199 200 209 219 234 240 236 229 239 239 255 248 222 230 223 218 209 214 206 210 203 216 225 222 221 222 230 234 234 234 241 240 233 236
238 232 153 158 177 191 196 205 214 216 196 212 226 231 227 225 232 233 231 243 231 225 227 216 215 212 212 207 204 218 226 225 221 215 222 229 235 235 236 234 235 236
246 186 185 172 194 191 199 213 217 210 205 223 225 219 222 225 226 227 227 239 247 237 232 226 219 218 214 212 207 214 224 230 233 218 215 222 226 237 239 233 231 237
235 204 182 177 173 191 205 219 222 220 216 213 209 209 221 224 214 222 221 229 237 234 232 232 220 219 220 216 213 216 218 222 222 222 214 220 226 224 232 244 237 232
234 193 173 171 183 198 203 213 223 224 220 212 208 212 219 227 219 213 220 227 231 241 238 229 222 216 215 221 220 218 217 221 222 218 214 214 217 219 222 228 236 238
234 204 181 186 196 205 207 214 221 221 217 214 212 213 219 218 210 221 214 214 226 224 225 223 221 215 215 217 220 219 218 220 224 225 217 215 215 216 220 226 232 237
234 221 210 201 205 210 212 214 217 219 215 212 214 220 221 213 210 218 226 218 226 224 220 219 217 217 217 219 217 216 218 223 222 222 221 213 213 215 213 230 233 236
235 224 223 219 212 214 217 217 213 211 207 205 208 216 219 217 214 205 224 226 221 221 217 215 215 219 217 218 217 217 218 219 221 218 214 210 205 215 203 230 233 155
243 232 228 226 219 216 216 214 209 205 202 203 203 209 212 215 215 211 218 223 217 226 221 215 214 219 225 219 218 217 216 217 214 215 203 145 28 310 250 232 236 197
254 252 241 230 221 218 217 216 212 208 204 204 206 212 218 220 218 215 217 224 217 220 218 222 213 217 226 224 216 214 214 214 210 170 119 136 157 174 179 188 155 221
260 249 258 260 246 234 226 225 219 211 207 209 207 217 220 220 223 223 222 218 222 224 224 214 215 217 224 238 224 216 211 184 142 157 163 156 170 174 177 186 179 189
271 262 245 239 251 247 238 230 227 221 217 219 217 220 224 222 221 223 222 219 217 210 202 209 207 221 230 252 261 233 160 170 181 174 180 189 183 180 175 188 193 193
284 271 255 241 237 244 239 233 232 228 223 221 220 221 223 222 220 220 218 218 213 200 208 201 214 217 217 232 201 177 182 175 174 179 188 193 193 182 186 191 198 197
283 277 269 256 249 245 241 235 232 227 224 222 220 219 220 221 222 216 208 193 202 199 194 201 202 205 169 187 177 179 186 187 185 187 186 195 190 190 193 189 185 181
273 275 272 266 257 251 247 242 236 229 224 221 220 219 220 220 215 208 207 201 208 212 214 209 216 184 176 173 177 182 189 193 195 182 184 185 187 191 187 183 178 170
269 265 264 265 264 260 253 250 249 247 243 235 226 216 220 224 218 210 208 206 207 218 217 207 211 162 174 176 180 188 188 193 187 181 184 187 187 189 186 178 175 165
262 261 262 261 256 251 250 250 245 255 254 238 226 219 217 218 214 215 216 208 210 219 220 209 209 160 178 179 188 190 185 192 187 185 187 184 185 187 180 171 161 165
251 256 257 256 253 240 236 237 235 228 233 236 225 218 207 201 206 208 209 211 215 220 223 216 198 163 177 182 188 188 173 193 194 189 180 178 177 176 163 156 158 159
252 251 254 255 250 242 237 233 231 228 224 234 231 220 216 210 214 210 210 210 214 216 218 216 197 171 172 179 183 175 172 192 186 182 177 174 157 151 154 155 154 154
258 246 243 241 242 243 240 242 228 225 226 222 228 225 218 215 217 221 220 218 219 219 215 214 194 171 169 174 178 173 184 177 162 167 157 149 146 147 144 141 131 126
262 253 244 236 233 227 226 232 222 206 215 222 214 221 217 213 216 220 221 216 217 220 216 214 195 168 168 173 177 176 185 176 170 153 148 150 139 133 127 115 123 130
263 256 246 238 227 223 225 231 227 214 211 214 215 212 212 212 217 220 209 206 214 209 216 211 194 168 173 172 176 177 185 168 155 146 144 131 124 126 120 112 95 72